Regional Weather Roundup
Issued by NWS

Home | Current Version | Previous Version | Graphics & Text | Print | Product List | Glossary On
Versions: 1 2 3 4 5 6 7 8 9 10 11 12 13 14 15 16 17 18 19 20 21 22 23 24 25 26 27 28 29 30 31 32 33 34 35 36 37 38 39 40 41 42 43 44 45 46 47 48 49 50
000
ASUS45 KSLC 241510
RWRUT

UTAH REGIONAL WEATHER ROUNDUP
NATIONAL WEATHER SERVICE SALT LAKE CITY UT
800 AM MST FRI FEB 24 2017

UTZ001>011-023>025-241600-

NORTHERN UTAH

CITY           SKY/WX    TMP DP  RH WIND       PRES   REMARKS
BRIGHAM CITY     N/A     25  21  87 CALM      30.01R
HILL AFB       MOCLDY    24  16  70 SW8       29.99R WCI  15
LOGAN          LGT SNOW  26  21  81 CALM      29.99R
OGDEN          CLOUDY    24  18  77 W6        30.00R WCI  17
SALT LAKE CITY FLURRIES  26  20  77 W12       30.02R WCI  16
TOOELE VALLEY  LGT SNOW  27  23  86 CALM      30.04R VSB 1
WENDOVER       PTCLDY    25   9  50 NW12      30.04R WCI  14
HEBER CITY     FLURRIES  10   7  85 E3        29.94R
WEST JORDAN    CLOUDY    27  23  84 W8        30.01R WCI  19

$$

UTZ011>015-024>027-241600-

CENTRAL/NORTHEAST UTAH

CITY           SKY/WX    TMP DP  RH WIND       PRES   REMARKS
PROVO AIRPORT  LGT SNOW  25  21  86 VRB5      30.03R FOG     WCI  19
MOAB/CANYONLAN CLOUDY    31  17  56 W13       29.92R WCI  21
DELTA          CLOUDY    19  19 100 MISG      30.03R
PRICE          PTCLDY    21  12  68 NW3       29.90R
ROOSEVELT      CLOUDY    19  18  93 W6        29.93R WCI  11
VERNAL         CLOUDY    16  14  92 W3        29.91R

$$

UTZ013>016-019>022-027-241600-

SOUTHERN UTAH

CITY           SKY/WX    TMP DP  RH WIND       PRES   REMARKS
BRYCE CANYON   SNOW      15  10  80 W15       29.89R VSB 1/2 WCI   0
CEDAR CITY     CLEAR     21  11  65 CALM      29.99R
MILFORD        LGT SNOW  24  21  88 CALM      30.01R FOG
ST GEORGE      MOSUNNY   37  14  38 W9        30.10R WCI  30
HANKSVILLE     MOSUNNY   23  12  63 CALM      29.97R
BLANDING       MOSUNNY   26  15  61 W8        29.97R WCI  18

$$

REGIONAL REPORTS     COLORADO/ARIZONA

CITY           SKY/WX    TMP DP  RH WIND       PRES   REMARKS
CRAIG, CO      LGT SNOW  17  11  77 W7        29.88R WCI   8
GRAND JUNCTION MOSUNNY   24  23  96 CALM      29.91R
RIFLE, CO      CLOUDY    24  20  84 CALM      29.89R
MONTROSE, CO   CLOUDY    24  16  71 CALM      29.91R
CORTEZ, CO     SUNNY     23  19  85 NE5       29.90R WCI  17
COLORADO CITY    N/A     27  19  74 E3        30.05R
PAGE, AZ       SUNNY     34   9  35 W8        29.98R WCI  27
GRAND CANYON   CLEAR     18  13  80 CALM      29.98R
KINGMAN, AZ    CLEAR     30   6  36 E8        30.08R WCI  22
FLAGSTAFF, AZ  SUNNY     20   7  57 VRB5      29.97R WCI  13

$$

REGIONAL REPORTS    NEVADA/IDAHO/WYOMING

CITY           SKY/WX    TMP DP  RH WIND       PRES   REMARKS
LAS VEGAS, NV  PTCLDY    39  18  42 SW3       30.11R
ELY, NY        CLOUDY    12   7  80 S8        30.01R WCI   0
ELKO, NV       MOCLDY    20  13  74 S6        30.05R WCI  12
POCATELLO, ID  LGT SNOW  20  17  88 SW21      29.99R FOG     WCI   4
BURLEY, ID     CLOUDY    24  14  65 SW21      29.99R WCI   9
FORT BRIDGER,    N/A     11  10  94 W13       29.88R WCI  -4
EVANSTON, WY   CLOUDY    12   7  80 W12       29.86R WCI  -2
ROCK SPRINGS,  CLOUDY    12   8  84 SW3       29.86R FOG

$$



USA.gov is the U.S. government's official web portal to all federal, state and local government web resources and services.